Location: Armagh
(54.3500°N, 6.6670°W)
Time: 02:39:43
(UTC+01:00)

ISS - Pass Details

Date: 10 December 2017
Orbit: 402 x 407 km, 51.6° (Epoch: 28 May)

Event Time Altitude Azimuth Distance (km) Brightness Sun altitude
Rises 17:55:19 0° 272° (W) 2,369 1.4 -15.1°
Reaches altitude 10° 17:57:29 10° 266° (W) 1,502 0.3 -15.4°
Maximum altitude 18:00:42 44° 193° (SSW) 591 -2.8 -15.8°
Enters shadow 18:02:33 21° 131° (SE) 984 -2.2 -16.1°
